KSEZKDAG

Guest
Details From KSEZ - Sedona
To KDAG - BARSTOW DAGGETT
Flight Number -
Tags decoded
Created
Modified
Stats Distance 247 nm / 457 km
Max Altitude 0 ft / 0 m
Waypoints 3
Social Downloads 0
Likes 0
Share VATSIM

Download

Looking for another format? Having issues loading an existing format? Contact us
Advertisement - Login to hide

Notes

Requested: KSEZ EED KDAG

Route

KSEZ EED KDAG

ID Type Via Altitude Latitude Longitude Leg Dist Tot Dist Heading (true) Name
O KSEZ APT - 0 ft / 0 m 34.84861˚ -111.78848˚ - 0 nm - Sedona
EED VOR - 0 ft / 0 m 34.76600˚ -114.47411˚ 132 nm 132 nm 269° / 267° NEEDLES VORTAC
O KDAG APT - 0 ft / 0 m 34.85399˚ -116.78663˚ 114 nm 246 nm 273° / 272° BARSTOW DAGGETT

Altitude Profile

Advertisement - Login to hide

Weather


0- 5 10 15 20 25 30 35+ Temperature / ° C

Clouds and Precipitation
Forecast for 2018-05-23 12:00 UTC. Updated 16 minutes ago

Ground ~20,000 ft ~40,000 ft Winds

KSEZ

Details ICAO KSEZ (SDX)
Name Sedona
Region United States
Timezone America/Phoenix (UTC-7.0)
Stats Elevation 4,827 ft / 1,471 m (AMSL)
Location 34.848607° -111.788482°
Runways 1
Magnetic Variation 10.418° E

METAR

KSEZ 230915Z AUTO 02004KT 10SM CLR 14/M05 A3000 RMK AO2

Decode

TAF

TAF KSEZ 230530Z 2306/2406 VRB05KT P6SM SKC FM231930 19008G16KT P6SM SKC FM240200 VRB05KT P6SM SKC

Decode

Departure Runways

ID Width Length Bearing (true) Bearing (mag) Surface Threshold Offset Overrun Length
03 100 ft / 30 m 5,130 ft / 1,564 m 45.63° 35.21° Asphalt 0 ft / 0 m 0 ft / 0 m
21 100 ft / 30 m 5,130 ft / 1,564 m 225.64° 215.22° Asphalt 0 ft / 0 m 0 ft / 0 m

KDAG

Details ICAO KDAG
Name BARSTOW DAGGETT
Region United States
Timezone America/Los_Angeles (UTC-7.0)
Stats Elevation 1,927 ft / 587 m (AMSL)
Location 34.853992° -116.786628°
Runways 2
Magnetic Variation 11.795° E

METAR

KDAG 230850Z AUTO 29009KT 10SM CLR 19/08 A2983 RMK AO2 SLP077 T01940083 50001

Decode

TAF

TAF KDAG 230520Z 2306/2406 27012KT P6SM FEW120 FM231800 09008KT P6SM FEW120 FM240000 23012G18KT P6SM SKC

Decode

Destination Runways

ID Width Length Bearing (true) Bearing (mag) Surface Threshold Offset Overrun Length
04 100 ft / 30 m 5,118 ft / 1,560 m 50.37° 38.58° Asphalt 0 ft / 0 m 0 ft / 0 m
08 150 ft / 46 m 6,387 ft / 1,947 m 90.04° 78.25° Asphalt 0 ft / 0 m 0 ft / 0 m
22 100 ft / 30 m 5,118 ft / 1,560 m 230.38° 218.59° Asphalt 0 ft / 0 m 0 ft / 0 m
26 150 ft / 46 m 6,387 ft / 1,947 m 270.05° 258.26° Asphalt 0 ft / 0 m 0 ft / 0 m